Regional Weather Roundup
Issued by NWS Midland/Odessa, TX

Skip options and go directly to product.
Home | Oldest Version | Next Version | Current Version | All | Text Only | Save Text | Print | Product List | Glossary On

Skip product version selection by date and time.   
363
ASUS44 KMAF 311710
RWRMAF
MIDLAND AREA WEATHER ROUNDUP
NATIONAL WEATHER SERVICE MIDLAND TX
1200 PM CDT TUE MAR 31 2015

...IN SOUTHWEST TEXAS AND SOUTHEAST NEW MEXICO...

CITY           SKY/WX    TMP DP  RH WIND       PRES   REMARKS
ALPINE         CLOUDY    71  42  34 SW21G29   30.21S
ANDREWS        FAIR      74  55  50 W3        30.04S
ARTESIA        MOSUNNY   73  41  31 CALM      30.05F
BIG SPRING     MOSUNNY   79  61  53 S10       30.04S
CARLSBAD       CLOUDY    66  49  54 CALM      30.04S
DRYDEN           N/A     72  61  68 SW5       30.05F
FORT STOCKTON  CLOUDY    77  49  37 W12       30.04F
GUAD PASS      CLOUDY    68  38  33 SW17      30.18S
HOBBS          SUNNY     73  54  49 S6        30.06S
MARFA          CLOUDY   N/A N/A N/A SW15      30.21F
MIDLAND AIRPK  PTSUNNY   75  58  54 S7        30.03S
MIDLAND INTL   CLOUDY    75  58  55 S8        30.03S
ODESSA         CLOUDY    74  57  55 SW12      30.04S
PECOS          CLOUDY    67  58  70 CALM      30.04S
PRESIDIO       PTSUNNY   75  49  39 CALM      30.11S
SEMINOLE       PTSUNNY   78  50  37 SW5       30.04F
SNYDER         PTSUNNY   74  61  62 S7        30.02F
WINK           CLOUDY    73  55  53 SW6       30.03S
$$
...OTHER STATIONS IN TEXAS...

CITY           SKY/WX    TMP DP  RH WIND       PRES   REMARKS
ABILENE        MOSUNNY   76  62  62 SW13G21   30.02F
AMARILLO       SUNNY     76  33  21 NW12      30.03F
AUSTIN         PTSUNNY   73  61  65 SW15      30.07F
BROWNSVILLE    PTSUNNY   78  69  73 SE20      30.07F
CORPUS CHRISTI CLOUDY    76  68  76 S15       30.08S
DALLAS FTW     MOSUNNY   77  64  64 SW16      30.00S
DEL RIO        CLOUDY    71  64  78 SE9       30.03F
EL PASO        PTSUNNY   77  37  23 SW13      30.07F
HOUSTON INT    MOSUNNY   76  60  57 SW9       30.11S
LUBBOCK        PTSUNNY   76  47  35 VRB3      30.01F
SAN ANGELO     CLOUDY    76  62  62 S15       30.01F
SAN ANTONIO    CLOUDY    73  62  68 S13       30.07F
WACO           PTSUNNY   75  63  66 S16       30.04F
WICHITA FALLS  NOT AVBL
$$
...OTHER LOCATIONS IN NEW MEXICO...

CITY           SKY/WX    TMP DP  RH WIND       PRES   REMARKS
ALAMAGORDO     MOSUNNY   72  36  26 S8G16     30.09F
ALBUQUERQUE    MOSUNNY   66  25  21 CALM      30.16F
CANNON AFB     SUNNY     77  33  20 NW7       30.05F
CLOVIS         SUNNY     77  37  24 NE7       30.05S
HOLLOMAN AFB   MOSUNNY   74  32  21 S6        30.07F
ROSWELL        MOSUNNY   72  39  30 NE6       30.05F
RUIDOSO        PTSUNNY   64  23  20 NW13      30.22F
SANTA FE       SUNNY     64  23  21 N9        30.19F
TRUTH OR CONSE MOSUNNY   73  28  18 NE6       30.11F
TUCUMCARI      SUNNY     73  26  17 N9G17     30.05F
$$

USA.gov is the U.S. government's official web portal to all federal, state and local government web resources and services.